Regional Weather Roundup
Issued by NWS

Home | Current Version | Previous Version | Text Only | Print | Product List | Glossary On
Versions: 1 2 3 4 5 6 7 8 9 10 11 12 13 14 15 16 17 18 19 20 21 22 23 24 25 26 27 28 29 30 31 32 33 34 35 36 37 38 39 40 41 42 43 44 45 46 47 48 49 50
000
ASUS44 KMEG 291600
RWRTN
TENNESSEE HOURLY STATE WEATHER ROUNDUP
NATIONAL WEATHER SERVICE MEMPHIS TN
1100 AM CDT FRI JUL 29 2016

TNZ002-004-019-021-049-052-054-088>092-291700-
WEST TENNESSEE

CITY           SKY/WX    TMP DP  RH WIND       PRES   REMARKS
MEMPHIS INTL   CLOUDY    82  73  74 SW8       29.99S
NWS MEMPHIS      N/A     81 N/A N/A MISG        N/A
JACKSON        CLOUDY    78  74  87 SW8       30.00R
DYERSBURG      CLOUDY   N/A N/A N/A MISG        N/A
PARIS          CLOUDY    77  73  88 SW7       29.99S
$$

TNZ008-025-027-028-033-062-065-066-291700-
NORTH MIDDLE TENNESSEE

CITY           SKY/WX    TMP DP  RH WIND       PRES   REMARKS
NASHVILLE      PTSUNNY   85  73  67 SW8       29.99S HX  91
CLARKSVILLE    PTSUNNY   80  75  84 SW6       29.98R
COOKEVILLE     CLOUDY    81  73  78 SW5       30.02S
CROSSVILLE     CLOUDY    78  69  73 W6        30.07S
$$

TNZ061-075-076-078-094-096-097-291700-
SOUTH MIDDLE TENNESSEE

CITY           SKY/WX    TMP DP  RH WIND       PRES   REMARKS
TULLAHOMA      CLOUDY    79  72  78 SW10      30.05R
WINCHESTER     CLOUDY    81  72  74 W5        30.03F
MCMINNVILLE    CLOUDY    79  77  94 W10       30.04R
COLUMBIA       CLOUDY    81  81 100 SW10      30.01S HX  91
SHELBYVILLE    CLOUDY    81  73  78 SW8       30.04R
$$

TNZ017-018-042-046-047-291700-
NORTHEAST TENNESSEE

CITY           SKY/WX    TMP DP  RH WIND       PRES   REMARKS
TRI CITIES     PTSUNNY   79  67  66 W3        30.04S
$$

TNZ012-013-036-069-073-074-291700-
CENTRAL EAST TENNESSEE

CITY           SKY/WX    TMP DP  RH WIND       PRES   REMARKS
KNOXVILLE      PTSUNNY   80  71  74 S10       30.01S
OAK RIDGE      PTSUNNY   83  71  67 VRB5      30.02F
GATLINBURG     MOSUNNY   82  68  61 SW8       30.02S
$$

TNZ083-085-099-291700-
SOUTHEAST TENNESSEE

CITY           SKY/WX    TMP DP  RH WIND       PRES   REMARKS
CHATTANOOGA    CLOUDY    84  68  58 SW8       30.02R
$$

SKY/WX REPORTED AS FAIR MEANS FEW OR NO CLOUDS BELOW
12 THOUSAND FEET.





USA.gov is the U.S. government's official web portal to all federal, state and local government web resources and services.